[[{"header":{"parameterUnit":"m.s-1","parameterCategory":1,"la1":30.2991,"la2":30.254,"lo1":-89.0895,"lo2":-89.0444,"dy":0.0017,"dx":0.0017,"nx":28,"ny":28,"refTime":"2024-05-06T09:00:00:Z","depth":0,"parameterNumber":2,"parameterNumberName":"U-component_of_WINDS"},"data":[0,0,0,0,0,0,0,0,0,0,0,0,0,0,0,0,0,0,0,0,0,0,0,0,0,0,0,0,0,0,0,0,0,0,0,0,0,0,0,0,0,0,0,0,0,0,0,0,0,0,0,0,0,0,0,0,0,0,0.8854,0.8855,0,0.8865,0.8866,0.8866,0.8835,0.8834,0.8833,0.8832,0.8842,0.8843,0.8844,0,0,0,0,0,0,0,0,0,0,0,0,0,0.8805,0.8806,0.8854,0.8855,0.8855,0.8865,0.8866,0.8866,0.8835,0.8834,0.8833,0.8832,0.8842,0.8843,0.8845,0,0,0,0,0,0,0,0,0,0,0,0,0,0.8822,0.8806,0.8854,0.8841,0.884,0.8865,0.8866,0.8866,0.8836,0.8834,0.8833,0.8831,0.8841,0.8843,0.8845,0.8884,0,0,0.885,0.8851,0,0,0,0,0,0,0,0,0.8821,0.8824,0.8843,0.8842,0.8841,0.8848,0.8852,0.8872,0.8836,0.8837,0.8832,0.8831,0.8845,0.8846,0.8851,0.8884,0.8884,0.885,0.8851,0.8852,0.8852,0,0,0,0,0,0,0,0.882,0.8823,0.8859,0.8843,0.8842,0.8833,0.8834,0.8855,0.8849,0.8837,0.8835,0.8837,0.8844,0.885,0.8851,0.8885,0.885,0.8852,0.8853,0.8853,0.8948,0.8949,0,0,0,0,0,0,0.8821,0.8822,0.8858,0.8859,0.8827,0.8835,0.8837,0.8847,0.8848,0.8847,0.8838,0.8835,0.8848,0.8849,0.8852,0.8896,0.8852,0.8853,0.8854,0.8946,0.8948,0.895,0,0,0,0,0,0,0.882,0.8824,0.8858,0.884,0.8844,0.8838,0.885,0.8848,0.8853,0.8849,0.8848,0.8845,0.8847,0.8849,0.8876,0.8896,0.8854,0.8856,0.8945,0.8947,0.8949,0.8986,0,0,0,0,0,0,0.8818,0.8824,0.8839,0.8841,0.8845,0.8882,0.8851,0.8849,0.8857,0.8853,0.8855,0.8854,0.8846,0.8873,0.8877,0.8898,0.8857,0.8943,0.8946,0.8948,0.8983,0.8989,0.8995,0,0,0,0,0,0.8817,0.8849,0.884,0.8845,0.8864,0.8884,0.8886,0.8876,0.8858,0.8873,0.887,0.8854,0.8893,0.8876,0.8881,0.8902,0.8941,0.8945,0.8948,0.898,0.8988,0.8995,0,0,0,0,0,0,0.885,0.8849,0.8839,0.8873,0.8879,0.8879,0.8897,0.8884,0.8895,0.8891,0.8877,0.8878,0.8906,0.8907,0.8888,0.8939,0.8914,0.8919,0.8937,0.8945,0.895,0.8949,0.8859,0,0,0,0,0,0.8862,0.8878,0.8876,0.8907,0.891,0.8903,0.8911,0.8903,0.8908,0.891,0.8909,0.8914,0.8927,0.8936,0.8948,0.8983,0.8982,0.9,0.9006,0.901,0.9014,0.9031,0.9038,0.8961,0.8961,0.8961,0,0,0.8885,0.8887,0.8898,0.8913,0.8917,0.8933,0.8905,0.8924,0.8936,0.8913,0.8937,0.8937,0.8941,0.8972,0.8985,0.8973,0.9035,0.9015,0.9019,0.9019,0.9035,0.9043,0.9049,0.8963,0.8963,0.8962,0,0,0.8936,0.894,0.8965,0.8969,0.8974,0.8969,0.8975,0.8977,0.8975,0.9,0.8982,0.8996,0.9019,0.9023,0.9028,0.9079,0.9065,0.9084,0.9114,0.9131,0.9137,0.9142,0.916,0.9166,0.9088,0.9088,0.9088,0,0.8965,0.899,0.8979,0.8999,0.9006,0.8985,0.901,0.9014,0.9023,0.9027,0.9014,0.9042,0.9044,0.9074,0.9087,0.9092,0.9097,0.9083,0.9137,0.9142,0.9147,0.9163,0.917,0.909,0.909,0.9089,0.9089,0,0.9024,0.9042,0.9061,0.907,0.9079,0.9101,0.9093,0.9103,0.9094,0.909,0.9114,0.9116,0.9127,0.9134,0.9125,0.9163,0.9155,0.914,0.9115,0.9157,0.9172,0.9178,0.9093,0.9092,0.9091,0.9091,0,0,0.9096,0.9099,0.9106,0.9109,0.9113,0.9126,0.9147,0.9159,0.9167,0.9174,0.919,0.921,0.9195,0.9201,0.9192,0.9207,0.9247,0.919,0.919,0.9199,0.9287,0.9298,0.9305,0.9237,0.9239,0.924,0.9286,0,0.9146,0.9182,0.9172,0.9208,0.9223,0.9204,0.9221,0.9226,0.9223,0.9234,0.9231,0.9245,0.9225,0.9228,0.9243,0.9239,0.9264,0.9236,0.9251,0.9252,0.925,0.9313,0.9325,0.9369,0.9292,0.9293,0.9294,0,0.9208,0.9217,0.9254,0.9255,0.9261,0.9277,0.9286,0.9298,0.9302,0.9299,0.9305,0.9293,0.9312,0.9288,0.9314,0.9295,0.9301,0.93,0.9302,0.9302,0.9275,0.9314,0.9383,0.9389,0.9303,0.9303,0.9302,0,0.9256,0.9277,0.9302,0.9305,0.9307,0.9319,0.932,0.9322,0.9329,0.9337,0.9341,0.9352,0.9357,0.9364,0.9355,0.9339,0.9382,0.9357,0.9379,0.9379,0.9388,0.9387,0.9458,0.9394,0.9394,0.9394,0.9394,0,0.9311,0.9334,0.9323,0.9338,0.9363,0.9351,0.9376,0.9375,0.9377,0.9391,0.9375,0.9388,0.9376,0.9388,0.9381,0.9402,0.9405,0.9402,0.94,0.9403,0.9403,0.9406,0.9402,0.9396,0.9395,0.9395,0.9395,0,0.9368,0.9361,0.9386,0.9386,0.9386,0.9404,0.9404,0.9417,0.9413,0.943,0.9434,0.9427,0.944,0.9432,0.9445,0.944,0.9469,0.9463,0.9467,0.9465,0.9487,0.9484,0.956,0.9569,0.9501,0.9502,0.9502,0,0.9403,0.942,0.9421,0.9429,0.9432,0.9445,0.9452,0.9441,0.9449,0.9455,0.9467,0.9479,0.9488,0.9509,0.9505,0.9515,0.9508,0.9534,0.951,0.9512,0.9507,0.9506,0.9507,0.9539,0.9539,0.954,0.9541,0,0.9465,0.9461,0.9472,0.9482,0.9491,0.9498,0.9504,0.9511,0.95,0.951,0.9523,0.953,0.9543,0.9555,0.9563,0.9563,0.955,0.9549,0.9554,0.9557,0.9558,0.9556,0.948,0.9547,0.9546,0.9546,0.9545,0.9545,0.9511,0.9525,0.9528,0.954,0.9544,0.9549,0.9561,0.9559,0.957,0.958,0.9573,0.9588,0.9591,0.96,0.9602,0.9614,0.9603,0.9611,0.9613,0.9614,0.9617,0.9557,0.9615,0.9615,0.9615,0.9615,0.9615,0,0.9572,0.9572,0.9584,0.9592,0.9602,0.9589,0.9595,0.9603,0.9617,0.9621,0.963,0.9644,0.9655,0.9652,0.9662,0.9672,0.9666,0.9674,0.9673,0.9673,0.9626,0.962,0.9679,0.9679,0.9679,0.9679,0.9679,0.9679,0.9604,0.9626,0.9623,0.9646,0.9647,0.9662,0.9666,0.967,0.9673,0.969,0.9699,0.9697,0.9698,0.9707,0.9717,0.9715,0.9719,0.973,0.9726,0.9683,0.9676,0.967,0.9664,0.9731,0.9731,0.9771,0.9772,0.9772]},{"header":{"parameterUnit":"m.s-1","parameterCategory":1,"la1":30.2991,"la2":30.254,"lo1":-89.0895,"lo2":-89.0444,"dy":0.0017,"dx":0.0017,"nx":28,"ny":28,"refTime":"2024-05-06T09:00:00:Z","depth":0,"parameterNumber":3,"parameterNumberName":"V-component_of_WINDS"},"data":[0,0,0,0,0,0,0,0,0,0,0,0,0,0,0,0,0,0,0,0,0,0,0,0,0,0,0,0,0,0,0,0,0,0,0,0,0,0,0,0,0,0,0,0,0,0,0,0,0,0,0,0,0,0,0,0,0,0,5.4474,5.4475,0,5.4559,5.456,5.4561,5.452,5.4518,5.4516,5.4514,5.4595,5.4599,5.4604,0,0,0,0,0,0,0,0,0,0,0,0,0,5.4271,5.4275,5.4474,5.4475,5.4476,5.4559,5.456,5.4561,5.452,5.4518,5.4515,5.4513,5.4594,5.4599,5.4604,0,0,0,0,0,0,0,0,0,0,0,0,0,5.4357,5.4276,5.4473,5.4466,5.4466,5.4558,5.456,5.4561,5.4521,5.4518,5.4514,5.4511,5.4592,5.4598,5.4605,5.4708,0,0,5.4624,5.4627,0,0,0,0,0,0,0,0,5.4353,5.4365,5.4466,5.4466,5.4467,5.4526,5.4518,5.461,5.4522,5.45,5.4514,5.451,5.4574,5.4582,5.4605,5.4712,5.4716,5.4624,5.4628,5.4631,5.4633,0,0,0,0,0,0,0,5.4347,5.4361,5.4507,5.4467,5.4468,5.4456,5.4465,5.4535,5.4554,5.4501,5.4499,5.451,5.4574,5.4599,5.4606,5.4717,5.4624,5.463,5.4634,5.4636,5.4913,5.4917,0,0,0,0,0,0,5.4342,5.4356,5.4504,5.451,5.4401,5.4462,5.4472,5.451,5.4553,5.4557,5.4512,5.4507,5.459,5.4599,5.4609,5.4734,5.4631,5.4637,5.464,5.491,5.4914,5.4918,0,0,0,0,0,0,5.4337,5.4355,5.4501,5.4432,5.445,5.4469,5.4512,5.4513,5.4538,5.4562,5.4564,5.4535,5.4588,5.46,5.4684,5.4736,5.464,5.4645,5.4905,5.4911,5.4916,5.4983,0,0,0,0,0,0,5.4332,5.4354,5.4395,5.4434,5.4454,5.4577,5.4515,5.4517,5.455,5.4544,5.4583,5.4587,5.4586,5.4675,5.4691,5.4743,5.465,5.4901,5.4908,5.4914,5.4976,5.499,5.5002,0,0,0,0,0,5.4325,5.4409,5.4397,5.4415,5.4506,5.458,5.4591,5.459,5.4554,5.4594,5.4609,5.4585,5.4728,5.4684,5.4701,5.4756,5.4898,5.4906,5.4914,5.4971,5.4987,5.5002,0,0,0,0,0,0,5.4373,5.4414,5.4401,5.4501,5.4538,5.4573,5.4624,5.4608,5.4654,5.4647,5.4642,5.4651,5.4738,5.4755,5.4706,5.4858,5.4807,5.4819,5.4844,5.486,5.4873,5.4867,5.4656,0,0,0,0,0,5.4396,5.4455,5.4486,5.4571,5.459,5.4604,5.4636,5.4633,5.4669,5.4684,5.4705,5.474,5.4793,5.4827,5.4877,5.4979,5.4986,5.5025,5.5037,5.5048,5.5058,5.5113,5.513,5.4944,5.4944,5.4944,0,0,5.4443,5.4472,5.4509,5.4582,5.461,5.4669,5.4617,5.4682,5.4725,5.4693,5.4774,5.4791,5.483,5.4923,5.4965,5.494,5.5111,5.5058,5.5066,5.5071,5.5123,5.514,5.5156,5.495,5.4949,5.4948,0,0,5.4559,5.4587,5.4662,5.4691,5.4735,5.4743,5.4761,5.4799,5.481,5.4892,5.4869,5.4919,5.501,5.5039,5.5065,5.5193,5.5172,5.5209,5.5276,5.5329,5.5344,5.5356,5.5402,5.5418,5.5219,5.5219,5.5219,0,5.4611,5.4701,5.4701,5.4768,5.48,5.4776,5.485,5.4878,5.4935,5.4957,5.4928,5.5043,5.5067,5.5167,5.5198,5.522,5.5239,5.5204,5.5342,5.5355,5.5367,5.541,5.5427,5.5224,5.5223,5.5223,5.5222,0,5.4763,5.4826,5.488,5.4938,5.4976,5.5047,5.5055,5.5094,5.5087,5.5098,5.5182,5.521,5.5265,5.5289,5.5282,5.5388,5.5371,5.5342,5.529,5.5389,5.5429,5.5446,5.523,5.5228,5.5227,5.5226,0,0,5.4912,5.497,5.499,5.5016,5.5062,5.511,5.5178,5.5234,5.5267,5.5307,5.5364,5.5442,5.5416,5.5446,5.5442,5.5489,5.5588,5.5455,5.5455,5.5478,5.5706,5.5727,5.5746,5.5575,5.5578,5.5581,5.5703,0,5.5031,5.5153,5.5155,5.5267,5.5325,5.5303,5.5362,5.5397,5.5409,5.5458,5.5471,5.5526,5.5488,5.5506,5.5552,5.5567,5.5634,5.5558,5.5626,5.5629,5.5617,5.5767,5.579,5.5904,5.5718,5.5721,5.5723,0,5.5186,5.5234,5.5352,5.5391,5.5415,5.5469,5.552,5.5568,5.5606,5.5611,5.5646,5.5635,5.5703,5.565,5.5744,5.5692,5.572,5.5731,5.5736,5.5742,5.5682,5.5777,5.594,5.5957,5.5748,5.5746,5.5744,0,5.5283,5.5376,5.5459,5.5481,5.5529,5.5567,5.5588,5.5623,5.5657,5.5701,5.5723,5.5774,5.5802,5.5841,5.5843,5.5804,5.5938,5.5884,5.5943,5.5943,5.5972,5.597,5.6142,5.5991,5.599,5.599,5.599,0,5.5415,5.5488,5.5503,5.5554,5.5635,5.5635,5.5715,5.5732,5.5764,5.5816,5.58,5.5849,5.585,5.59,5.5903,5.598,5.5992,5.5998,5.5997,5.5999,5.5999,5.6017,5.601,5.5995,5.5994,5.5993,5.5992,0,5.5537,5.5549,5.5638,5.5676,5.5688,5.5746,5.5777,5.5825,5.5836,5.5903,5.5919,5.5936,5.5994,5.6001,5.6068,5.607,5.6163,5.6154,5.6151,5.6149,5.6208,5.6202,5.6397,5.6422,5.6255,5.6257,5.6258,0,5.562,5.5677,5.5721,5.5757,5.5781,5.5837,5.5872,5.5875,5.5911,5.5959,5.6001,5.6058,5.6104,5.6197,5.6215,5.6266,5.6258,5.6323,5.6266,5.6266,5.6259,5.6256,5.6261,5.6334,5.6336,5.6337,5.6338,0,5.5768,5.5772,5.5824,5.5878,5.5921,5.5963,5.6003,5.6032,5.604,5.6081,5.6142,5.6178,5.6247,5.6304,5.6355,5.6374,5.6358,5.6357,5.6373,5.6375,5.6371,5.6374,5.6181,5.6352,5.635,5.6349,5.6349,5.6348,5.5873,5.5922,5.5962,5.602,5.6051,5.6089,5.6136,5.6154,5.6205,5.6263,5.6261,5.6327,5.6363,5.643,5.6454,5.6505,5.6483,5.6507,5.6512,5.6518,5.6524,5.6363,5.6514,5.6513,5.6513,5.6513,5.6512,0,5.602,5.6045,5.6098,5.6156,5.6201,5.6184,5.6227,5.6266,5.6325,5.6361,5.6407,5.6476,5.6531,5.6553,5.6607,5.6643,5.6637,5.6657,5.6654,5.6659,5.6541,5.6521,5.6661,5.6661,5.6661,5.6661,5.6661,5.6661,5.6101,5.6184,5.6192,5.6289,5.6312,5.6379,5.6405,5.644,5.6468,5.6547,5.6594,5.6608,5.6638,5.6694,5.6743,5.6748,5.6768,5.6792,5.6793,5.6682,5.6667,5.6653,5.6635,5.6796,5.6796,5.6907,5.6908,5.6909]}]]